[[{"header":{"parameterUnit":"m.s-1","parameterCategory":1,"la1":30.2991,"la2":30.254,"lo1":-89.0895,"lo2":-89.0444,"dy":0.0017,"dx":0.0017,"nx":28,"ny":28,"refTime":"2024-08-15T21:00:00:Z","depth":0,"parameterNumber":2,"parameterNumberName":"U-component_of_WINDS"},"data":[0,0,0,0,0,0,0,0,0,0,0,0,0,0,0,0,0,0,0,0,0,0,0,0,0,0,0,0,0,0,0,0,0,0,0,0,0,0,0,0,0,0,0,0,0,0,0,0,0,0,0,0,0,0,0,0,0,0,-3.2847,-3.2848,0,-3.2962,-3.2963,-3.2964,-3.2979,-3.2978,-3.2977,-3.2976,-3.3091,-3.3095,-3.3099,0,0,0,0,0,0,0,0,0,0,0,0,0,-3.2641,-3.2645,-3.2847,-3.2848,-3.285,-3.2962,-3.2963,-3.2965,-3.298,-3.2978,-3.2977,-3.2976,-3.309,-3.3095,-3.31,0,0,0,0,0,0,0,0,0,0,0,0,0,-3.274,-3.2646,-3.2847,-3.2871,-3.2874,-3.2961,-3.2963,-3.2965,-3.298,-3.2978,-3.2977,-3.2975,-3.3089,-3.3094,-3.3101,-3.3171,0,0,-3.3119,-3.3122,0,0,0,0,0,0,0,0,-3.2735,-3.2748,-3.2866,-3.2869,-3.2873,-3.2955,-3.2933,-3.3034,-3.298,-3.294,-3.2976,-3.2974,-3.3047,-3.3057,-3.3082,-3.3176,-3.3181,-3.312,-3.3123,-3.3126,-3.3128,0,0,0,0,0,0,0,-3.2728,-3.2743,-3.2892,-3.2868,-3.2872,-3.2876,-3.2888,-3.2952,-3.3001,-3.2943,-3.2945,-3.2958,-3.3049,-3.3076,-3.3084,-3.3183,-3.312,-3.3125,-3.3129,-3.3131,-3.3343,-3.3345,0,0,0,0,0,0,-3.2717,-3.2737,-3.2889,-3.2896,-3.2799,-3.2881,-3.2895,-3.293,-3.3,-3.301,-3.2959,-3.2958,-3.3066,-3.3077,-3.3088,-3.3176,-3.3126,-3.3132,-3.3135,-3.3341,-3.3344,-3.3346,0,0,0,0,0,0,-3.2712,-3.273,-3.2884,-3.2817,-3.2837,-3.2886,-3.2926,-3.2933,-3.296,-3.3013,-3.3021,-3.2978,-3.3065,-3.308,-3.3151,-3.318,-3.3135,-3.314,-3.3339,-3.3342,-3.3345,-3.3351,0,0,0,0,0,0,-3.2706,-3.2728,-3.2755,-3.2818,-3.284,-3.2944,-3.2928,-3.2937,-3.2971,-3.2971,-3.3032,-3.3041,-3.3065,-3.3142,-3.3157,-3.3188,-3.3145,-3.3336,-3.334,-3.3344,-3.3348,-3.3354,-3.3358,0,0,0,0,0,-3.2699,-3.2751,-3.2756,-3.2775,-3.2875,-3.2946,-3.2959,-3.2986,-3.2973,-3.3001,-3.3035,-3.3039,-3.3175,-3.3149,-3.3166,-3.3199,-3.3335,-3.3339,-3.3343,-3.3346,-3.3352,-3.3358,0,0,0,0,0,0,-3.269,-3.276,-3.2766,-3.2841,-3.2887,-3.2948,-3.2983,-3.2992,-3.3043,-3.304,-3.3072,-3.3086,-3.3155,-3.3185,-3.3154,-3.3272,-3.3254,-3.3262,-3.325,-3.3256,-3.3261,-3.3252,-3.315,0,0,0,0,0,-3.2697,-3.2748,-3.2807,-3.2867,-3.2891,-3.2933,-3.2965,-3.2983,-3.3032,-3.3051,-3.3091,-3.3138,-3.3192,-3.3226,-3.3278,-3.3354,-3.3367,-3.3385,-3.339,-3.3394,-3.34,-3.3443,-3.3452,-3.336,-3.336,-3.336,0,0,-3.2711,-3.2756,-3.2786,-3.2867,-3.2905,-3.2958,-3.2949,-3.3005,-3.3045,-3.306,-3.3129,-3.316,-3.3215,-3.3289,-3.3323,-3.3315,-3.3429,-3.34,-3.3403,-3.3406,-3.3448,-3.3457,-3.3465,-3.3363,-3.3363,-3.3362,0,0,-3.2763,-3.2803,-3.2857,-3.2897,-3.2955,-3.2984,-3.2998,-3.3058,-3.308,-3.3151,-3.3163,-3.3211,-3.3303,-3.3342,-3.3373,-3.3445,-3.3451,-3.3462,-3.3487,-3.3528,-3.3535,-3.3542,-3.3567,-3.3576,-3.3468,-3.3468,-3.3468,0,-3.2772,-3.2853,-3.2884,-3.294,-3.2976,-3.2994,-3.305,-3.3086,-3.3159,-3.3183,-3.3174,-3.3291,-3.3329,-3.3412,-3.343,-3.3456,-3.3472,-3.3453,-3.3532,-3.3539,-3.3545,-3.357,-3.3579,-3.3469,-3.3469,-3.3469,-3.3468,0,-3.2862,-3.2918,-3.2955,-3.3026,-3.3066,-3.3122,-3.3162,-3.3199,-3.3214,-3.3244,-3.3317,-3.3364,-3.3427,-3.3449,-3.3464,-3.3535,-3.3529,-3.3526,-3.3507,-3.3554,-3.3578,-3.3587,-3.347,-3.347,-3.3469,-3.3469,0,0,-3.2908,-3.2998,-3.3011,-3.3044,-3.3112,-3.3156,-3.3214,-3.3277,-3.3307,-3.3358,-3.3407,-3.3486,-3.3485,-3.3521,-3.3541,-3.3578,-3.3632,-3.3571,-3.3572,-3.3579,-3.3714,-3.3714,-3.3724,-3.3637,-3.3639,-3.3641,-3.3709,0,-3.2967,-3.307,-3.3101,-3.3188,-3.324,-3.326,-3.3311,-3.3358,-3.3388,-3.3438,-3.3472,-3.3527,-3.3521,-3.3543,-3.3581,-3.3617,-3.3659,-3.3613,-3.3682,-3.3684,-3.3665,-3.3736,-3.3737,-3.3798,-3.3718,-3.372,-3.3721,0,-3.3049,-3.3102,-3.3194,-3.3258,-3.3281,-3.3325,-3.3386,-3.3433,-3.3488,-3.3508,-3.3551,-3.3569,-3.363,-3.3611,-3.3696,-3.3664,-3.3695,-3.3718,-3.3721,-3.3727,-3.3703,-3.3742,-3.3819,-3.3827,-3.3736,-3.3734,-3.3733,0,-3.3072,-3.3167,-3.3235,-3.3263,-3.3339,-3.337,-3.3403,-3.3456,-3.3493,-3.3547,-3.3571,-3.3631,-3.3663,-3.371,-3.3743,-3.3727,-3.3826,-3.381,-3.3844,-3.3843,-3.3861,-3.3859,-3.3941,-3.3884,-3.3884,-3.3884,-3.3884,0,-3.3133,-3.3188,-3.3246,-3.3287,-3.3351,-3.3387,-3.3449,-3.3483,-3.3531,-3.3579,-3.3601,-3.3646,-3.3689,-3.3741,-3.3768,-3.3834,-3.3849,-3.3867,-3.3873,-3.3864,-3.3861,-3.3882,-3.3878,-3.3886,-3.3886,-3.3885,-3.3885,0,-3.3168,-3.3209,-3.3284,-3.3351,-3.3369,-3.3413,-3.347,-3.3511,-3.3544,-3.3606,-3.3622,-3.3674,-3.3735,-3.3775,-3.3853,-3.3871,-3.3944,-3.395,-3.3925,-3.3928,-3.3959,-3.3955,-3.4056,-3.4072,-3.4006,-3.4006,-3.4007,0,-3.3204,-3.3247,-3.3319,-3.3354,-3.3387,-3.3443,-3.3481,-3.352,-3.3558,-3.3626,-3.3659,-3.3723,-3.3775,-3.3873,-3.3917,-3.3978,-3.3984,-3.4016,-3.3993,-3.3983,-3.3983,-3.3979,-3.3984,-3.4018,-3.4019,-3.4019,-3.402,0,-3.3262,-3.3281,-3.3335,-3.3397,-3.3442,-3.3493,-3.3543,-3.3571,-3.3618,-3.3661,-3.3725,-3.3766,-3.3847,-3.391,-3.3975,-3.4009,-3.4022,-3.4027,-3.4038,-3.4028,-3.4011,-3.402,-3.3933,-3.4024,-3.4023,-3.4023,-3.4023,-3.4023,-3.3297,-3.3337,-3.3395,-3.3455,-3.3498,-3.3545,-3.3588,-3.3627,-3.3681,-3.3751,-3.3771,-3.3838,-3.3894,-3.3983,-3.4019,-3.4073,-3.4068,-3.4084,-3.4088,-3.4091,-3.4091,-3.4005,-3.4085,-3.4085,-3.4085,-3.4085,-3.4085,0,-3.3356,-3.3395,-3.345,-3.3521,-3.3569,-3.358,-3.3637,-3.3676,-3.3735,-3.3787,-3.3839,-3.3913,-3.3975,-3.4026,-3.409,-3.4122,-3.413,-3.4138,-3.4135,-3.4142,-3.4091,-3.4075,-3.4131,-3.4131,-3.413,-3.413,-3.413,-3.413,-3.3392,-3.346,-3.3486,-3.3576,-3.3615,-3.3681,-3.3713,-3.3757,-3.3799,-3.3882,-3.3933,-3.3967,-3.4019,-3.4087,-3.4145,-3.4158,-3.418,-3.4186,-3.4201,-3.4151,-3.4146,-3.4141,-3.4126,-3.4191,-3.4191,-3.4248,-3.4248,-3.4248]},{"header":{"parameterUnit":"m.s-1","parameterCategory":1,"la1":30.2991,"la2":30.254,"lo1":-89.0895,"lo2":-89.0444,"dy":0.0017,"dx":0.0017,"nx":28,"ny":28,"refTime":"2024-08-15T21:00:00:Z","depth":0,"parameterNumber":3,"parameterNumberName":"V-component_of_WINDS"},"data":[0,0,0,0,0,0,0,0,0,0,0,0,0,0,0,0,0,0,0,0,0,0,0,0,0,0,0,0,0,0,0,0,0,0,0,0,0,0,0,0,0,0,0,0,0,0,0,0,0,0,0,0,0,0,0,0,0,0,4.0031,4.0033,0,4.0179,4.0181,4.0182,4.0295,4.0296,4.0297,4.0298,4.0444,4.0447,4.045,0,0,0,0,0,0,0,0,0,0,0,0,0,3.9844,3.9847,4.0031,4.0033,4.0035,4.0179,4.0181,4.0183,4.0295,4.0296,4.0298,4.0299,4.0444,4.0447,4.045,0,0,0,0,0,0,0,0,0,0,0,0,0,3.9952,3.9848,4.0031,4.0108,4.0117,4.0178,4.0181,4.0183,4.0295,4.0296,4.0298,4.0299,4.0442,4.0447,4.0451,4.0446,0,0,4.0464,4.0466,0,0,0,0,0,0,0,0,3.9946,3.9959,4.0095,4.0103,4.0113,4.0221,4.0169,4.0271,4.0294,4.0227,4.0298,4.03,4.0368,4.0379,4.0403,4.0453,4.0459,4.0465,4.0467,4.0469,4.047,0,0,0,0,0,0,0,3.9938,3.9953,4.009,4.0097,4.0108,4.0135,4.0152,4.0189,4.0287,4.0233,4.0241,4.0258,4.0373,4.0398,4.0407,4.0461,4.0465,4.0468,4.0471,4.0473,4.0518,4.0517,0,0,0,0,0,0,3.9919,3.9946,4.0085,4.0094,4.0031,4.0137,4.0156,4.0184,4.0287,4.0304,4.0256,4.0262,4.039,4.0402,4.0413,4.0416,4.0469,4.0473,4.0476,4.052,4.0518,4.0517,0,0,0,0,0,0,3.9914,3.993,4.0079,4.0022,4.0044,4.0139,4.0169,4.0186,4.0212,4.0304,4.0322,4.0264,4.0392,4.0407,4.0438,4.0423,4.0475,4.0479,4.0521,4.0519,4.0517,4.0421,0,0,0,0,0,0,3.9909,3.9928,3.9927,4.0022,4.0046,4.0102,4.0168,4.0188,4.0219,4.0229,4.0316,4.0332,4.0394,4.0431,4.0442,4.043,4.0483,4.0523,4.052,4.0518,4.0426,4.0415,4.0407,0,0,0,0,0,3.9901,3.9892,3.9926,3.9943,4.0047,4.0101,4.0115,4.0188,4.0217,4.0218,4.0278,4.0329,4.0423,4.0433,4.0447,4.0435,4.0525,4.0521,4.0518,4.043,4.0417,4.0407,0,0,0,0,0,0,3.9791,3.9906,3.9945,3.9966,4.0023,4.012,4.0122,4.0172,4.022,4.0227,4.0314,4.0333,4.0355,4.0399,4.0408,4.0438,4.048,4.048,4.0408,4.0397,4.0388,4.0377,4.0486,0,0,0,0,0,3.9769,3.9804,3.9902,3.9912,3.9939,4.0025,4.0051,4.0103,4.0165,4.0189,4.0251,4.0308,4.0351,4.0377,4.0421,4.0433,4.0454,4.0432,4.0422,4.0414,4.0412,4.0425,4.0416,4.0506,4.0506,4.0506,0,0,3.9724,3.9791,3.9807,3.9891,3.9941,3.9975,4.0044,4.0076,4.0103,4.0193,4.0228,4.0276,4.0345,4.0368,4.0381,4.0404,4.0393,4.041,4.0403,4.0406,4.0421,4.0412,4.0404,4.0504,4.0504,4.0505,0,0,3.966,3.9714,3.9729,3.9779,3.9855,3.9913,3.9917,4.0007,4.0043,4.008,4.015,4.0182,4.0252,4.03,4.0333,4.0291,4.0341,4.0303,4.0253,4.0264,4.0257,4.0251,4.0237,4.0231,4.0301,4.0301,4.0301,0,3.9593,3.9648,3.9729,3.9759,3.9794,3.9881,3.9897,3.9941,4.0027,4.0049,4.0075,4.0169,4.0221,4.0257,4.0248,4.0271,4.0278,4.0293,4.0252,4.0247,4.0242,4.023,4.0224,4.0296,4.0296,4.0297,4.0297,0,3.9564,3.9601,3.9604,3.9688,3.9724,3.9746,3.983,3.9857,3.9907,3.9962,3.9999,4.0067,4.0127,4.014,4.0187,4.0183,4.0196,4.0235,4.028,4.0227,4.0217,4.0213,4.0288,4.029,4.0292,4.0293,0,0,3.9431,3.9563,3.9562,3.9603,3.9695,3.9725,3.9752,3.9814,3.9835,3.9892,3.9918,3.9978,4.0016,4.0054,4.0108,4.0118,4.0082,4.0157,4.016,4.0141,4.0084,4.0054,4.0047,4.0116,4.0116,4.0115,4.0079,0,3.9381,3.9436,3.9511,3.9541,3.9577,3.9662,3.9686,3.9745,3.9798,3.9837,3.9896,3.9938,3.9985,4.0008,4.0022,4.0083,4.0072,4.0087,4.014,4.0141,4.012,4.0041,4.0009,3.997,4.0075,4.0074,4.0074,0,3.9329,3.9385,3.9419,3.9512,3.953,3.955,3.9614,3.965,3.9719,3.9758,3.9802,3.9862,3.9895,3.9936,3.9984,3.9992,4.0019,4.0053,4.0053,4.0061,4.0104,4.0047,3.996,3.9954,4.0068,4.0069,4.0069,0,3.923,3.9313,3.9345,3.9377,3.9485,3.9498,3.9544,3.9615,3.9649,3.9705,3.9727,3.9785,3.9817,3.986,3.9934,3.9957,3.9975,4.0021,4.0007,4.0005,4.0006,4.0005,3.9922,4.0023,4.0023,4.0023,4.0023,0,3.9167,3.9184,3.9303,3.9322,3.9344,3.9432,3.9451,3.9505,3.9568,3.96,3.9676,3.9703,3.98,3.9839,3.9897,3.9928,3.9942,3.9974,3.9989,3.9967,3.9963,3.9985,3.9989,4.0022,4.0022,4.0022,4.0022,0,3.9059,3.9139,3.9179,3.928,3.9306,3.9318,3.9405,3.9427,3.9487,3.9525,3.9539,3.9632,3.9683,3.9762,3.9834,3.9873,3.9895,3.992,3.9872,3.9881,3.9863,3.9864,3.9792,3.9787,3.9889,3.9888,3.9887,0,3.9012,3.9028,3.9132,3.916,3.9204,3.9246,3.9282,3.9369,3.9403,3.9486,3.9498,3.9555,3.9605,3.9681,3.9755,3.9811,3.9839,3.981,3.9847,3.9826,3.9839,3.9837,3.984,3.98,3.9798,3.9797,3.9796,0,3.8922,3.8963,3.9011,3.9075,3.9116,3.917,3.9227,3.9245,3.9345,3.9379,3.9433,3.9472,3.9548,3.9604,3.9672,3.9718,3.9774,3.9784,3.9784,3.9762,3.9733,3.9749,3.9848,3.9785,3.9786,3.9787,3.9788,3.9788,3.8845,3.8864,3.8941,3.8994,3.9047,3.91,3.9127,3.9191,3.9238,3.9309,3.9357,3.9408,3.9481,3.9578,3.9622,3.9663,3.9687,3.9686,3.9686,3.9685,3.9677,3.9727,3.9675,3.9676,3.9676,3.9677,3.9677,0,3.876,3.8814,3.8862,3.8942,3.8984,3.9035,3.9103,3.9134,3.9178,3.9242,3.9291,3.9354,3.9409,3.9489,3.955,3.9568,3.9595,3.9581,3.958,3.959,3.9652,3.9646,3.9558,3.9558,3.9558,3.9558,3.9558,3.9558,3.872,3.8756,3.8805,3.8869,3.8924,3.8976,3.9011,3.906,3.9112,3.9179,3.9227,3.9279,3.9349,3.9417,3.9471,3.9493,3.9512,3.949,3.9519,3.9575,3.9586,3.9596,3.9591,3.9493,3.9493,3.9455,3.9455,3.9454]}]]